Year,Month,Day,Hour,Minute,Value (Times are PST for barometer in hPa)
2018,01,21,00,00,931.05
2018,01,21,00,01,931.25
2018,01,21,00,02,930.83
2018,01,21,00,03,930.75
2018,01,21,00,04,931.40
2018,01,21,00,05,931.69
2018,01,21,00,06,931.35
2018,01,21,00,07,931.63
2018,01,21,00,08,931.58
2018,01,21,00,09,930.70
2018,01,21,00,10,930.52
2018,01,21,00,11,930.87
2018,01,21,00,12,930.74
2018,01,21,00,13,930.56
2018,01,21,00,14,930.66
2018,01,21,00,15,930.42
2018,01,21,00,16,930.73
2018,01,21,00,17,930.52
2018,01,21,00,18,930.59
2018,01,21,00,19,930.66
2018,01,21,00,20,930.28
2018,01,21,00,21,930.26
2018,01,21,00,22,930.49
2018,01,21,00,23,930.55
2018,01,21,00,24,930.50
2018,01,21,00,25,930.41
2018,01,21,00,26,930.29
2018,01,21,00,27,930.12
2018,01,21,00,28,930.17
2018,01,21,00,29,930.19
2018,01,21,00,30,930.04
2018,01,21,00,31,930.46
2018,01,21,00,32,930.81
2018,01,21,00,33,930.59
2018,01,21,00,34,930.11
2018,01,21,00,35,930.52
2018,01,21,00,36,930.65
2018,01,21,00,37,930.38
2018,01,21,00,38,930.44
2018,01,21,00,39,930.74
2018,01,21,00,40,930.71
2018,01,21,00,41,930.89
2018,01,21,00,42,930.32
2018,01,21,00,43,930.40
2018,01,21,00,44,930.60
2018,01,21,00,45,930.74
2018,01,21,00,46,930.67
2018,01,21,00,47,930.49
2018,01,21,00,48,930.54
2018,01,21,00,49,930.22
2018,01,21,00,50,930.39
2018,01,21,00,51,930.42
2018,01,21,00,52,930.23
2018,01,21,00,53,930.15
2018,01,21,00,54,930.26
2018,01,21,00,55,930.46
2018,01,21,00,56,930.33
2018,01,21,00,57,930.50
2018,01,21,00,58,930.45
2018,01,21,00,59,930.52
2018,01,21,01,00,930.72
2018,01,21,01,01,930.79
2018,01,21,01,02,930.52
2018,01,21,01,03,930.72
2018,01,21,01,04,930.67
2018,01,21,01,05,930.49
2018,01,21,01,06,930.55
2018,01,21,01,07,930.33
2018,01,21,01,08,930.55
2018,01,21,01,09,929.97
2018,01,21,01,10,930.05
2018,01,21,01,11,930.68
2018,01,21,01,12,930.08
2018,01,21,01,13,930.27
2018,01,21,01,14,930.22
2018,01,21,01,15,930.34
2018,01,21,01,16,930.39
2018,01,21,01,17,930.44
2018,01,21,01,18,930.41
2018,01,21,01,19,930.33
2018,01,21,01,20,930.48
2018,01,21,01,21,930.46
2018,01,21,01,22,930.15
2018,01,21,01,23,929.93
2018,01,21,01,24,929.87
2018,01,21,01,25,929.88
2018,01,21,01,26,930.07
2018,01,21,01,27,930.29
2018,01,21,01,28,929.86
2018,01,21,01,29,929.84
2018,01,21,01,30,930.15
2018,01,21,01,31,929.97
2018,01,21,01,32,929.94
2018,01,21,01,33,929.98
2018,01,21,01,34,930.01
2018,01,21,01,35,929.79
2018,01,21,01,36,929.97
2018,01,21,01,37,929.93
2018,01,21,01,38,929.69
2018,01,21,01,39,929.87
2018,01,21,01,40,929.88
2018,01,21,01,41,929.95
2018,01,21,01,42,930.02
2018,01,21,01,43,930.18
2018,01,21,01,44,930.39
2018,01,21,01,45,929.93
2018,01,21,01,46,929.81
2018,01,21,01,47,929.94
2018,01,21,01,48,929.88
2018,01,21,01,49,930.03
2018,01,21,01,50,929.81
2018,01,21,01,51,930.12
2018,01,21,01,52,929.90
2018,01,21,01,53,929.90
2018,01,21,01,54,929.83
2018,01,21,01,55,929.49
2018,01,21,01,56,929.80
2018,01,21,01,57,930.09
2018,01,21,01,58,930.23
2018,01,21,01,59,929.77
2018,01,21,02,00,929.69
2018,01,21,02,01,929.53
2018,01,21,02,02,929.83
2018,01,21,02,03,929.76
2018,01,21,02,04,929.09
2018,01,21,02,05,928.55
2018,01,21,02,06,928.65
2018,01,21,02,07,929.53
2018,01,21,02,08,929.58
2018,01,21,02,09,929.74
2018,01,21,02,10,929.25
2018,01,21,02,11,929.47
2018,01,21,02,12,929.55
2018,01,21,02,13,929.51
2018,01,21,02,14,929.59
2018,01,21,02,15,929.46
2018,01,21,02,16,929.12
2018,01,21,02,17,929.12
2018,01,21,02,18,929.60
2018,01,21,02,19,929.58
2018,01,21,02,20,929.40
2018,01,21,02,21,929.47
2018,01,21,02,22,929.14
2018,01,21,02,23,928.94
2018,01,21,02,24,928.88
2018,01,21,02,25,928.83
2018,01,21,02,26,929.15
2018,01,21,02,27,929.34
2018,01,21,02,28,928.94
2018,01,21,02,29,929.29
2018,01,21,02,30,929.22
2018,01,21,02,31,929.10
2018,01,21,02,32,928.88
2018,01,21,02,33,928.60
2018,01,21,02,34,929.08
2018,01,21,02,35,929.59
2018,01,21,02,36,929.37
2018,01,21,02,37,928.95
2018,01,21,02,38,928.91
2018,01,21,02,39,928.06
2018,01,21,02,40,927.57
2018,01,21,02,41,927.62
2018,01,21,02,42,928.07
2018,01,21,02,43,928.64
2018,01,21,02,44,928.90
2018,01,21,02,45,928.68
2018,01,21,02,46,928.72
2018,01,21,02,47,928.76
2018,01,21,02,48,928.58
2018,01,21,02,49,929.14
2018,01,21,02,50,928.81
2018,01,21,02,51,928.69
2018,01,21,02,52,928.43
2018,01,21,02,53,928.72
2018,01,21,02,54,928.81
2018,01,21,02,55,929.18
2018,01,21,02,56,928.77
2018,01,21,02,57,928.91
2018,01,21,02,58,928.79
2018,01,21,02,59,928.88
2018,01,21,03,00,929.11
2018,01,21,03,01,928.89
2018,01,21,03,02,928.90
2018,01,21,03,03,928.75
2018,01,21,03,04,928.81
2018,01,21,03,05,929.02
2018,01,21,03,06,928.99
2018,01,21,03,07,929.05
2018,01,21,03,08,928.93
2018,01,21,03,09,928.65
2018,01,21,03,10,928.71
2018,01,21,03,11,928.97
2018,01,21,03,12,928.51
2018,01,21,03,13,928.41
2018,01,21,03,14,928.46
2018,01,21,03,15,928.51
2018,01,21,03,16,928.50
2018,01,21,03,17,928.31
2018,01,21,03,18,928.06
2018,01,21,03,19,928.27
2018,01,21,03,20,928.14
2018,01,21,03,21,928.15
2018,01,21,03,22,928.31
2018,01,21,03,23,928.06
2018,01,21,03,24,928.23
2018,01,21,03,25,927.76
2018,01,21,03,26,927.67
2018,01,21,03,27,928.05
2018,01,21,03,28,928.15
2018,01,21,03,29,928.29
2018,01,21,03,30,928.37
2018,01,21,03,31,928.21
2018,01,21,03,32,928.34
2018,01,21,03,33,928.27
2018,01,21,03,34,928.07
2018,01,21,03,35,928.13
2018,01,21,03,36,927.95
2018,01,21,03,37,928.18
2018,01,21,03,38,928.24
2018,01,21,03,39,928.28
2018,01,21,03,40,928.25
2018,01,21,03,41,927.98
2018,01,21,03,42,928.04
2018,01,21,03,43,928.08
2018,01,21,03,44,928.34
2018,01,21,03,45,928.31
2018,01,21,03,46,928.05
2018,01,21,03,47,927.86
2018,01,21,03,48,928.23
2018,01,21,03,49,928.13
2018,01,21,03,50,928.32
2018,01,21,03,51,927.99
2018,01,21,03,52,927.59
2018,01,21,03,53,927.74
2018,01,21,03,54,927.73
2018,01,21,03,55,927.62
2018,01,21,03,56,927.94
2018,01,21,03,57,927.69
2018,01,21,03,58,927.60
2018,01,21,03,59,927.67
2018,01,21,04,00,927.58
2018,01,21,04,01,927.12
2018,01,21,04,02,927.42
2018,01,21,04,03,927.23
2018,01,21,04,04,927.25
2018,01,21,04,05,927.45
2018,01,21,04,06,927.41
2018,01,21,04,07,927.52
2018,01,21,04,08,927.33
2018,01,21,04,09,927.59
2018,01,21,04,10,927.50
2018,01,21,04,11,927.53
2018,01,21,04,12,927.49
2018,01,21,04,13,927.36
2018,01,21,04,14,927.41
2018,01,21,04,15,927.84
2018,01,21,04,16,927.82
2018,01,21,04,17,927.39
2018,01,21,04,18,927.10
2018,01,21,04,19,927.22
2018,01,21,04,20,927.51
2018,01,21,04,21,927.17
2018,01,21,04,22,927.21
2018,01,21,04,23,926.74
2018,01,21,04,24,927.18
2018,01,21,04,25,927.10
2018,01,21,04,26,927.18
2018,01,21,04,27,927.09
2018,01,21,04,28,927.07
2018,01,21,04,29,927.23
2018,01,21,04,30,927.32
2018,01,21,04,31,927.13
2018,01,21,04,32,927.08
2018,01,21,04,33,926.83
2018,01,21,04,34,926.99
2018,01,21,04,35,926.71
2018,01,21,04,36,926.59
2018,01,21,04,37,926.71
2018,01,21,04,38,926.61
2018,01,21,04,39,926.55
2018,01,21,04,40,927.02
2018,01,21,04,41,926.97
2018,01,21,04,42,926.48
2018,01,21,04,43,926.47
2018,01,21,04,44,926.79
2018,01,21,04,45,926.72
2018,01,21,04,46,926.69
2018,01,21,04,47,927.23
2018,01,21,04,48,927.22
2018,01,21,04,49,926.90
2018,01,21,04,50,926.36
2018,01,21,04,51,926.60
2018,01,21,04,52,927.10
2018,01,21,04,53,926.75
2018,01,21,04,54,926.70
2018,01,21,04,55,926.80
2018,01,21,04,56,926.96
2018,01,21,04,57,927.02
2018,01,21,04,58,926.98
2018,01,21,04,59,926.81
2018,01,21,05,00,926.53
2018,01,21,05,01,926.72
2018,01,21,05,02,926.80
2018,01,21,05,03,926.99
2018,01,21,05,04,927.05
2018,01,21,05,05,926.73
2018,01,21,05,06,927.08
2018,01,21,05,07,926.82
2018,01,21,05,08,926.72
2018,01,21,05,09,926.70
2018,01,21,05,10,926.54
2018,01,21,05,11,926.44
2018,01,21,05,12,926.20
2018,01,21,05,13,926.41
2018,01,21,05,14,926.27
2018,01,21,05,15,925.96
2018,01,21,05,16,926.32
2018,01,21,05,17,926.41
2018,01,21,05,18,926.38
2018,01,21,05,19,926.28
2018,01,21,05,20,926.35
2018,01,21,05,21,926.41
2018,01,21,05,22,926.46
2018,01,21,05,23,926.53
2018,01,21,05,24,926.36
2018,01,21,05,25,926.01
2018,01,21,05,26,926.04
2018,01,21,05,27,926.02
2018,01,21,05,28,926.14
2018,01,21,05,29,925.83
2018,01,21,05,30,926.02
2018,01,21,05,31,925.74
2018,01,21,05,32,925.69
2018,01,21,05,33,925.88
2018,01,21,05,34,926.11
2018,01,21,05,35,926.61
2018,01,21,05,36,926.54
2018,01,21,05,37,926.36
2018,01,21,05,38,925.97
2018,01,21,05,39,925.99
2018,01,21,05,40,926.10
2018,01,21,05,41,925.80
2018,01,21,05,42,926.39
2018,01,21,05,43,925.96
2018,01,21,05,44,925.85
2018,01,21,05,45,925.91
2018,01,21,05,46,925.96
2018,01,21,05,47,925.74
2018,01,21,05,48,925.70
2018,01,21,05,49,925.71
2018,01,21,05,50,925.95
2018,01,21,05,51,925.64
2018,01,21,05,52,925.60
2018,01,21,05,53,925.50
2018,01,21,05,54,925.84
2018,01,21,05,55,925.27
2018,01,21,05,56,925.43
2018,01,21,05,57,925.42
2018,01,21,05,58,925.71
2018,01,21,05,59,925.95
2018,01,21,06,00,925.62
2018,01,21,06,01,925.30
2018,01,21,06,02,925.69
2018,01,21,06,03,925.83
2018,01,21,06,04,925.64
2018,01,21,06,05,925.61
2018,01,21,06,06,925.32
2018,01,21,06,07,925.16
2018,01,21,06,08,925.23
2018,01,21,06,09,925.18
2018,01,21,06,10,924.78
2018,01,21,06,11,925.40
2018,01,21,06,12,925.33
2018,01,21,06,13,925.42
2018,01,21,06,14,925.36
2018,01,21,06,15,925.68
2018,01,21,06,16,925.41
2018,01,21,06,17,925.00
2018,01,21,06,18,925.27
2018,01,21,06,19,925.52
2018,01,21,06,20,925.23
2018,01,21,06,21,925.32
2018,01,21,06,22,925.22
2018,01,21,06,23,925.51
2018,01,21,06,24,925.20
2018,01,21,06,25,925.21
2018,01,21,06,26,925.37
2018,01,21,06,27,925.66
2018,01,21,06,28,925.45
2018,01,21,06,29,925.87
2018,01,21,06,30,925.81
2018,01,21,06,31,924.59
2018,01,21,06,32,924.66
2018,01,21,06,33,925.28
2018,01,21,06,34,924.93
2018,01,21,06,35,925.14
2018,01,21,06,36,924.83
2018,01,21,06,37,924.96
2018,01,21,06,38,924.96
2018,01,21,06,39,924.98
2018,01,21,06,40,925.41
2018,01,21,06,41,925.52
2018,01,21,06,42,925.36
2018,01,21,06,43,925.42
2018,01,21,06,44,925.22
2018,01,21,06,45,925.46
2018,01,21,06,46,925.20
2018,01,21,06,47,925.10
2018,01,21,06,48,925.28
2018,01,21,06,49,925.07
2018,01,21,06,50,925.32
2018,01,21,06,51,925.05
2018,01,21,06,52,924.90
2018,01,21,06,53,925.11
2018,01,21,06,54,924.65
2018,01,21,06,55,924.66
2018,01,21,06,56,924.76
2018,01,21,06,57,924.25
2018,01,21,06,58,924.28
2018,01,21,06,59,924.85
2018,01,21,07,00,925.40
2018,01,21,07,01,925.33
2018,01,21,07,02,925.30
2018,01,21,07,03,925.25
2018,01,21,07,04,925.18
2018,01,21,07,05,925.58
2018,01,21,07,06,925.05
2018,01,21,07,07,924.89
2018,01,21,07,08,924.96
2018,01,21,07,09,924.89
2018,01,21,07,10,924.84
2018,01,21,07,11,924.63
2018,01,21,07,12,924.80
2018,01,21,07,13,925.03
2018,01,21,07,14,924.99
2018,01,21,07,15,924.93
2018,01,21,07,16,925.13
2018,01,21,07,17,925.10
2018,01,21,07,18,924.23
2018,01,21,07,19,924.69
2018,01,21,07,20,924.73
2018,01,21,07,21,924.89
2018,01,21,07,22,924.85
2018,01,21,07,23,924.78
2018,01,21,07,24,925.05
2018,01,21,07,25,924.74
2018,01,21,07,26,925.16
2018,01,21,07,27,925.06
2018,01,21,07,28,925.14
2018,01,21,07,29,925.40
2018,01,21,07,30,925.38
2018,01,21,07,31,925.55
2018,01,21,07,32,925.40
2018,01,21,07,33,925.35
2018,01,21,07,34,925.14
2018,01,21,07,35,925.35
2018,01,21,07,36,925.14
2018,01,21,07,37,925.40
2018,01,21,07,38,925.37
2018,01,21,07,39,925.68
2018,01,21,07,40,925.27
2018,01,21,07,41,925.64
2018,01,21,07,42,925.52
2018,01,21,07,43,925.31
2018,01,21,07,44,925.50
2018,01,21,07,45,925.60
2018,01,21,07,46,925.53
2018,01,21,07,47,925.40
2018,01,21,07,48,925.53
2018,01,21,07,49,925.67
2018,01,21,07,50,925.57
2018,01,21,07,51,925.64
2018,01,21,07,52,925.77
2018,01,21,07,53,925.69
2018,01,21,07,54,925.59
2018,01,21,07,55,926.04
2018,01,21,07,56,926.14
2018,01,21,07,57,926.10
2018,01,21,07,58,925.86
2018,01,21,07,59,925.68
2018,01,21,08,00,925.94
2018,01,21,08,01,926.43
2018,01,21,08,02,925.96
2018,01,21,08,03,925.71
2018,01,21,08,04,926.04
2018,01,21,08,05,926.12
2018,01,21,08,06,926.30
2018,01,21,08,07,926.21
2018,01,21,08,08,926.52
2018,01,21,08,09,925.92
2018,01,21,08,10,926.25
2018,01,21,08,11,926.30
2018,01,21,08,12,926.09
2018,01,21,08,13,926.31
2018,01,21,08,14,926.34
2018,01,21,08,15,926.19
2018,01,21,08,16,926.47
2018,01,21,08,17,926.32
2018,01,21,08,18,926.47
2018,01,21,08,19,926.28
2018,01,21,08,20,926.41
2018,01,21,08,21,926.54
2018,01,21,08,22,926.31
2018,01,21,08,23,926.34
2018,01,21,08,24,926.06
2018,01,21,08,25,926.62
2018,01,21,08,26,926.65
2018,01,21,08,27,926.70
2018,01,21,08,28,927.05
2018,01,21,08,29,926.71
2018,01,21,08,30,926.52
2018,01,21,08,31,926.60
2018,01,21,08,32,927.05
2018,01,21,08,33,926.69
2018,01,21,08,34,926.81
2018,01,21,08,35,926.58
2018,01,21,08,36,926.52
2018,01,21,08,37,926.53
2018,01,21,08,38,926.66
2018,01,21,08,39,926.99
2018,01,21,08,40,926.90
2018,01,21,08,41,926.45
2018,01,21,08,42,926.47
2018,01,21,08,43,926.99
2018,01,21,08,44,927.04
2018,01,21,08,45,927.50
2018,01,21,08,46,926.99
2018,01,21,08,47,927.56
2018,01,21,08,48,927.38
2018,01,21,08,49,927.01
2018,01,21,08,50,926.90
2018,01,21,08,51,927.14
2018,01,21,08,52,927.41
2018,01,21,08,53,927.65
2018,01,21,08,54,927.38
2018,01,21,08,55,927.67
2018,01,21,08,56,927.63
2018,01,21,08,57,927.58
2018,01,21,08,58,927.17
2018,01,21,08,59,927.30
2018,01,21,09,00,927.19
2018,01,21,09,01,927.09
2018,01,21,09,02,927.09
2018,01,21,09,03,927.08
2018,01,21,09,04,927.35
2018,01,21,09,05,927.14
2018,01,21,09,06,927.26
2018,01,21,09,07,927.21
2018,01,21,09,08,926.90
2018,01,21,09,09,927.02
2018,01,21,09,10,927.00
2018,01,21,09,11,927.16
2018,01,21,09,12,927.16
2018,01,21,09,13,927.15
2018,01,21,09,14,927.03
2018,01,21,09,15,927.26
2018,01,21,09,16,927.29
2018,01,21,09,17,927.17
2018,01,21,09,18,927.32
2018,01,21,09,19,927.03
2018,01,21,09,20,927.24
2018,01,21,09,21,927.48
2018,01,21,09,22,927.18
2018,01,21,09,23,927.56
2018,01,21,09,24,927.43
2018,01,21,09,25,927.35
2018,01,21,09,26,927.21
2018,01,21,09,27,927.49
2018,01,21,09,28,927.26
2018,01,21,09,29,927.25
2018,01,21,09,30,927.64
2018,01,21,09,31,927.76
2018,01,21,09,32,927.55
2018,01,21,09,33,927.26
2018,01,21,09,34,927.38
2018,01,21,09,35,926.92
2018,01,21,09,36,927.49
2018,01,21,09,37,927.28
2018,01,21,09,38,926.91
2018,01,21,09,39,927.33
2018,01,21,09,40,927.23
2018,01,21,09,41,927.26
2018,01,21,09,42,927.20
2018,01,21,09,43,927.30
2018,01,21,09,44,927.59
2018,01,21,09,45,927.89
2018,01,21,09,46,927.70
2018,01,21,09,47,927.80
2018,01,21,09,48,927.87
2018,01,21,09,49,927.80
2018,01,21,09,50,927.90
2018,01,21,09,51,927.80
2018,01,21,09,52,927.81
2018,01,21,09,53,927.94
2018,01,21,09,54,927.90
2018,01,21,09,55,927.96
2018,01,21,09,56,928.39
2018,01,21,09,57,927.92
2018,01,21,09,58,928.21
2018,01,21,09,59,928.16
2018,01,21,10,00,928.49
2018,01,21,10,01,928.19
2018,01,21,10,02,928.34
2018,01,21,10,03,928.41
2018,01,21,10,04,928.38
2018,01,21,10,05,928.34
2018,01,21,10,06,928.41
2018,01,21,10,07,928.48
2018,01,21,10,08,928.48
2018,01,21,10,09,928.49
2018,01,21,10,10,928.14
2018,01,21,10,11,928.22
2018,01,21,10,12,928.39
2018,01,21,10,13,928.57
2018,01,21,10,14,928.40
2018,01,21,10,15,928.20
2018,01,21,10,16,928.48
2018,01,21,10,17,928.44
2018,01,21,10,18,928.32
2018,01,21,10,19,928.47
2018,01,21,10,20,928.20
2018,01,21,10,21,928.65
2018,01,21,10,22,928.62
2018,01,21,10,23,928.61
2018,01,21,10,24,928.41
2018,01,21,10,25,928.51
2018,01,21,10,26,928.54
2018,01,21,10,27,928.41
2018,01,21,10,28,928.34
2018,01,21,10,29,928.41
2018,01,21,10,30,928.53
2018,01,21,10,31,928.83
2018,01,21,10,32,928.49
2018,01,21,10,33,928.14
2018,01,21,10,34,928.17
2018,01,21,10,35,928.83
2018,01,21,10,36,928.92
2018,01,21,10,37,929.00
2018,01,21,10,38,929.16
2018,01,21,10,39,929.17
2018,01,21,10,40,929.28
2018,01,21,10,41,929.06
2018,01,21,10,42,929.09
2018,01,21,10,43,929.20
2018,01,21,10,44,929.34
2018,01,21,10,45,929.02
2018,01,21,10,46,929.34
2018,01,21,10,47,929.50
2018,01,21,10,48,929.56
2018,01,21,10,49,929.61
2018,01,21,10,50,929.30
2018,01,21,10,51,929.60
2018,01,21,10,52,929.70
2018,01,21,10,53,929.65
2018,01,21,10,54,929.22
2018,01,21,10,55,929.68
2018,01,21,10,56,929.38
2018,01,21,10,57,929.83
2018,01,21,10,58,929.78
2018,01,21,10,59,929.88
2018,01,21,11,00,929.57
2018,01,21,11,01,929.83
2018,01,21,11,02,929.74
2018,01,21,11,03,929.94
2018,01,21,11,04,929.93
2018,01,21,11,05,929.79
2018,01,21,11,06,929.67
2018,01,21,11,07,929.78
2018,01,21,11,08,930.00
2018,01,21,11,09,930.06
2018,01,21,11,10,929.87
2018,01,21,11,11,929.93
2018,01,21,11,12,929.80
2018,01,21,11,13,929.91
2018,01,21,11,14,930.03
2018,01,21,11,15,929.95
2018,01,21,11,16,930.14
2018,01,21,11,17,930.14
2018,01,21,11,18,930.07
2018,01,21,11,19,930.07
2018,01,21,11,20,930.01
2018,01,21,11,21,930.23
2018,01,21,11,22,930.07
2018,01,21,11,23,929.99
2018,01,21,11,24,929.91
2018,01,21,11,25,930.14
2018,01,21,11,26,930.03
2018,01,21,11,27,929.95
2018,01,21,11,28,930.04
2018,01,21,11,29,929.98
2018,01,21,11,30,930.11
2018,01,21,11,31,930.09
2018,01,21,11,32,929.71
2018,01,21,11,33,929.89
2018,01,21,11,34,929.65
2018,01,21,11,35,929.95
2018,01,21,11,36,930.05
2018,01,21,11,37,930.27
2018,01,21,11,38,930.10
2018,01,21,11,39,930.00
2018,01,21,11,40,929.83
2018,01,21,11,41,929.87
2018,01,21,11,42,930.66
2018,01,21,11,43,930.75
2018,01,21,11,44,930.51
2018,01,21,11,45,930.51
2018,01,21,11,46,930.41
2018,01,21,11,47,930.47
2018,01,21,11,48,930.25
2018,01,21,11,49,930.44
2018,01,21,11,50,930.46
2018,01,21,11,51,930.14
2018,01,21,11,52,930.21
2018,01,21,11,53,930.06
2018,01,21,11,54,930.51
2018,01,21,11,55,930.48
2018,01,21,11,56,930.59
2018,01,21,11,57,930.72
2018,01,21,11,58,930.19
2018,01,21,11,59,930.51
2018,01,21,12,00,930.55
2018,01,21,12,01,930.49
2018,01,21,12,02,930.67
2018,01,21,12,03,930.57
2018,01,21,12,04,930.33
2018,01,21,12,05,930.18
2018,01,21,12,06,930.29
2018,01,21,12,07,930.50
2018,01,21,12,08,930.25
2018,01,21,12,09,930.40
2018,01,21,12,10,930.18
2018,01,21,12,11,930.44
2018,01,21,12,12,930.48
2018,01,21,12,13,930.58
2018,01,21,12,14,930.59
2018,01,21,12,15,930.25
2018,01,21,12,16,930.48
2018,01,21,12,17,930.77
2018,01,21,12,18,930.58
2018,01,21,12,19,930.48
2018,01,21,12,20,930.41
2018,01,21,12,21,930.39
2018,01,21,12,22,930.51
2018,01,21,12,23,930.55
2018,01,21,12,24,930.53
2018,01,21,12,25,930.17
2018,01,21,12,26,930.24
2018,01,21,12,27,930.51
2018,01,21,12,28,930.41
2018,01,21,12,29,930.38
2018,01,21,12,30,930.28
2018,01,21,12,31,930.24
2018,01,21,12,32,930.38
2018,01,21,12,33,930.38
2018,01,21,12,34,929.89
2018,01,21,12,35,930.28
2018,01,21,12,36,930.38
2018,01,21,12,37,930.45
2018,01,21,12,38,930.58
2018,01,21,12,39,930.54
2018,01,21,12,40,930.41
2018,01,21,12,41,930.36
2018,01,21,12,42,930.72
2018,01,21,12,43,930.58
2018,01,21,12,44,930.40
2018,01,21,12,45,930.81
2018,01,21,12,46,930.62
2018,01,21,12,47,930.83
2018,01,21,12,48,930.49
2018,01,21,12,49,930.61
2018,01,21,12,50,930.82
2018,01,21,12,51,930.87
2018,01,21,12,52,930.61
2018,01,21,12,53,931.05
2018,01,21,12,54,931.09
2018,01,21,12,55,931.09
2018,01,21,12,56,931.09
2018,01,21,12,57,931.02
2018,01,21,12,58,931.09
2018,01,21,12,59,931.03
2018,01,21,13,00,931.25
2018,01,21,13,01,931.12
2018,01,21,13,02,931.29
2018,01,21,13,03,931.04
2018,01,21,13,04,930.82
2018,01,21,13,05,930.88
2018,01,21,13,06,930.83
2018,01,21,13,07,930.92
2018,01,21,13,08,930.73
2018,01,21,13,09,930.99
2018,01,21,13,10,930.99
2018,01,21,13,11,931.36
2018,01,21,13,12,931.31
2018,01,21,13,13,931.19
2018,01,21,13,14,931.23
2018,01,21,13,15,931.36
2018,01,21,13,16,931.43
2018,01,21,13,17,931.35
2018,01,21,13,18,931.22
2018,01,21,13,19,931.15
2018,01,21,13,20,931.05
2018,01,21,13,21,931.26
2018,01,21,13,22,931.53
2018,01,21,13,23,931.60
2018,01,21,13,24,931.53
2018,01,21,13,25,931.60
2018,01,21,13,26,931.63
2018,01,21,13,27,931.49
2018,01,21,13,28,931.49
2018,01,21,13,29,931.45
2018,01,21,13,30,931.29
2018,01,21,13,31,931.53
2018,01,21,13,32,931.54
2018,01,21,13,33,931.16
2018,01,21,13,34,931.22
2018,01,21,13,35,931.40
2018,01,21,13,36,931.49
2018,01,21,13,37,931.56
2018,01,21,13,38,931.27
2018,01,21,13,39,930.85
2018,01,21,13,40,931.09
2018,01,21,13,41,931.36
2018,01,21,13,42,931.31
2018,01,21,13,43,931.20
2018,01,21,13,44,931.33
2018,01,21,13,45,931.53
2018,01,21,13,46,931.56
2018,01,21,13,47,931.33
2018,01,21,13,48,930.87
2018,01,21,13,49,931.22
2018,01,21,13,50,930.99
2018,01,21,13,51,931.19
2018,01,21,13,52,931.08
2018,01,21,13,53,930.93
2018,01,21,13,54,931.22
2018,01,21,13,55,931.22
2018,01,21,13,56,931.19
2018,01,21,13,57,931.01
2018,01,21,13,58,930.88
2018,01,21,13,59,930.95
2018,01,21,14,00,930.88
2018,01,21,14,01,930.95
2018,01,21,14,02,931.09
2018,01,21,14,03,931.36
2018,01,21,14,04,931.36
2018,01,21,14,05,931.29
2018,01,21,14,06,931.10
2018,01,21,14,07,931.26
2018,01,21,14,08,931.22
2018,01,21,14,09,931.29
2018,01,21,14,10,931.43
2018,01,21,14,11,930.95
2018,01,21,14,12,931.46
2018,01,21,14,13,931.13
2018,01,21,14,14,931.38
2018,01,21,14,15,931.70
2018,01,21,14,16,931.43
2018,01,21,14,17,931.53
2018,01,21,14,18,931.51
2018,01,21,14,19,931.91
2018,01,21,14,20,931.60
2018,01,21,14,21,931.70
2018,01,21,14,22,931.65
2018,01,21,14,23,931.46
2018,01,21,14,24,931.49
2018,01,21,14,25,931.49
2018,01,21,14,26,931.55
2018,01,21,14,27,931.46
2018,01,21,14,28,931.55
2018,01,21,14,29,931.85
2018,01,21,14,30,931.56
2018,01,21,14,31,931.80
2018,01,21,14,32,932.23
2018,01,21,14,33,931.97
2018,01,21,14,34,932.25
2018,01,21,14,35,931.87
2018,01,21,14,36,931.83
2018,01,21,14,37,931.83
2018,01,21,14,38,932.08
2018,01,21,14,39,932.31
2018,01,21,14,40,932.34
2018,01,21,14,41,932.00
2018,01,21,14,42,931.32
2018,01,21,14,43,931.80
2018,01,21,14,44,931.19
2018,01,21,14,45,931.19
2018,01,21,14,46,932.38
2018,01,21,14,47,932.48
2018,01,21,14,48,932.50
2018,01,21,14,49,932.34
2018,01,21,14,50,932.65
2018,01,21,14,51,932.66
2018,01,21,14,52,932.35
2018,01,21,14,53,932.48
2018,01,21,14,54,932.78
2018,01,21,14,55,932.81
2018,01,21,14,56,932.66
2018,01,21,14,57,932.76
2018,01,21,14,58,932.95
2018,01,21,14,59,932.81
2018,01,21,15,00,932.82
2018,01,21,15,01,933.05
2018,01,21,15,02,932.81
2018,01,21,15,03,932.84
2018,01,21,15,04,932.58
2018,01,21,15,05,932.78
2018,01,21,15,06,932.68
2018,01,21,15,07,932.98
2018,01,21,15,08,932.97
2018,01,21,15,09,932.71
2018,01,21,15,10,932.71
2018,01,21,15,11,932.81
2018,01,21,15,12,932.75
2018,01,21,15,13,932.51
2018,01,21,15,14,932.51
2018,01,21,15,15,932.94
2018,01,21,15,16,932.70
2018,01,21,15,17,932.41
2018,01,21,15,18,933.00
2018,01,21,15,19,933.39
2018,01,21,15,20,933.14
2018,01,21,15,21,933.02
2018,01,21,15,22,933.02
2018,01,21,15,23,933.02
2018,01,21,15,24,932.88
2018,01,21,15,25,932.78
2018,01,21,15,26,932.81
2018,01,21,15,27,933.11
2018,01,21,15,28,932.95
2018,01,21,15,29,932.85
2018,01,21,15,30,932.95
2018,01,21,15,31,933.02
2018,01,21,15,32,932.96
2018,01,21,15,33,933.15
2018,01,21,15,34,933.58
2018,01,21,15,35,933.34
2018,01,21,15,36,933.77
2018,01,21,15,37,933.15
2018,01,21,15,38,933.60
2018,01,21,15,39,933.75
2018,01,21,15,40,933.59
2018,01,21,15,41,933.39
2018,01,21,15,42,933.49
2018,01,21,15,43,933.55
2018,01,21,15,44,933.39
2018,01,21,15,45,933.56
2018,01,21,15,46,933.73
2018,01,21,15,47,933.73
2018,01,21,15,48,933.70
2018,01,21,15,49,933.83
2018,01,21,15,50,933.76
2018,01,21,15,51,933.59
2018,01,21,15,52,933.56
2018,01,21,15,53,933.63
2018,01,21,15,54,933.76
2018,01,21,15,55,933.39
2018,01,21,15,56,933.90
2018,01,21,15,57,934.14
2018,01,21,15,58,934.07
2018,01,21,15,59,934.04
2018,01,21,16,00,934.14
2018,01,21,16,01,934.20
2018,01,21,16,02,933.74
2018,01,21,16,03,933.84
2018,01,21,16,04,933.54
2018,01,21,16,05,933.83
2018,01,21,16,06,933.29
2018,01,21,16,07,933.76
2018,01,21,16,08,934.02
2018,01,21,16,09,933.90
2018,01,21,16,10,933.56
2018,01,21,16,11,934.07
2018,01,21,16,12,933.97
2018,01,21,16,13,933.90
2018,01,21,16,14,934.00
2018,01,21,16,15,934.30
2018,01,21,16,16,934.07
2018,01,21,16,17,934.20
2018,01,21,16,18,934.24
2018,01,21,16,19,934.31
2018,01,21,16,20,934.16
2018,01,21,16,21,934.00
2018,01,21,16,22,934.07
2018,01,21,16,23,933.80
2018,01,21,16,24,934.27
2018,01,21,16,25,933.80
2018,01,21,16,26,933.79
2018,01,21,16,27,933.53
2018,01,21,16,28,933.66
2018,01,21,16,29,933.76
2018,01,21,16,30,933.99
2018,01,21,16,31,933.86
2018,01,21,16,32,933.49
2018,01,21,16,33,933.97
2018,01,21,16,34,933.98
2018,01,21,16,35,933.63
2018,01,21,16,36,933.93